Yuma MCAS, AZ

2:46 AM MST on April 29, 2017 (GMT -0700)
Yuma Marine Corps Air Station

Weather History for KNYL - November, 2012

Change the Weather History Date:

Thursday, November 1, 2012

  Actual Average Record
Temperature  
Mean Temperature 73 °F 71 °F  
Max Temperature 88 °F 84 °F 96 °F (1962)
Min Temperature 58 °F 59 °F 41 °F (1886)
Degree Days  
Heating Degree Days 0 0  
Month to date heating degree days 0 0  
Since 1 July heating degree days 0 2  
Cooling Degree Days 8 7  
Month to date cooling degree days 8 7  
Year to date cooling degree days 4798 4569  
Growing Degree Days 23 (Base 50)    
Moisture  
Dew Point 37 °F    
Average Humidity 33    
Maximum Humidity 53    
Minimum Humidity 13    
Precipitation  
Precipitation 0.00 in 0.01 in 0.22 in (1987)
Month to date precipitation 0.00 0.01  
Year to date precipitation 2.37 2.84  
Sea Level Pressure  
Sea Level Pressure 29.87 in    
Wind  
Wind Speed 2 mph (ESE)    
Max Wind Speed 8 mph    
Max Gust Speed 10 mph    
Visibility 10 miles    
Events      
T = Trace of Precipitation, MM = Missing Value Source: NWS Daily Summary

Daily Weather History Graph

Daily Weather History Graph

Search for Another Location

Airport or City:

Trip Planner

Search our weather history database for the weather conditions in past years. The results will help you decide how hot, cold, wet, or windy it might be!

Date:

Astronomy

Nov. 01, 2012 Rise Set
Actual Time 6:56 AM MST 5:47 PM MST
Civil Twilight 6:31 AM MST 6:12 PM MST
Nautical Twilight 6:01 AM MST 6:41 PM MST
Astronomical Twilight 5:33 AM MST 7:10 PM MST
Moon 7:54 PM MST (11/1) 9:25 AM MST (11/1)
Length of Visible Light 11h 41m
Length of Day
10h 50m
Waning Gibbous, 92% of the Moon is Illuminated
Nov 1
Waning Gibbous
Nov 6
Last Quarter
Nov 13
New
Nov 20
First Quarter
Nov 28
Full

Hourly Weather History & Observations

Time (MST) Temp. Dew Point Humidity Pressure Visibility Wind Dir Wind Speed Gust Speed Precip Events Conditions
12:55 AM 64.0 °F 30.9 °F 29% 29.89 in 10.0 mi ENE 3.5 mph - N/A   Clear
1:55 AM 64.0 °F 28.9 °F 27% 29.89 in 10.0 mi ENE 3.5 mph - N/A   Clear
2:55 AM 63.0 °F 30.0 °F 29% 29.88 in 10.0 mi Calm Calm - N/A   Clear
3:55 AM 60.1 °F 36.0 °F 41% 29.88 in 10.0 mi Calm Calm - N/A   Clear
4:55 AM 60.1 °F 37.9 °F 44% 29.88 in 10.0 mi NE 3.5 mph - N/A   Clear
5:55 AM 60.1 °F 32.0 °F 35% 29.88 in 10.0 mi NNE 5.8 mph - N/A   Partly Cloudy
6:55 AM 59.0 °F 30.0 °F 33% 29.90 in 9.0 mi East 3.5 mph - N/A   Scattered Clouds
7:55 AM 61.0 °F 32.0 °F 34% 29.92 in 10.0 mi Calm Calm - N/A   Scattered Clouds
8:55 AM 66.9 °F 28.9 °F 24% 29.93 in 10.0 mi Calm Calm - N/A   Scattered Clouds
9:55 AM 73.9 °F 30.9 °F 21% 29.93 in 10.0 mi Calm Calm - N/A   Partly Cloudy
10:55 AM 77.0 °F 39.0 °F 25% 29.93 in 10.0 mi Calm Calm - N/A   Partly Cloudy
11:55 AM 81.0 °F 35.1 °F 19% 29.91 in 10.0 mi Calm Calm - N/A   Smoke
12:55 PM 84.0 °F 33.1 °F 16% 29.88 in 10.0 mi Calm Calm - N/A   Smoke
1:55 PM 86.0 °F 33.1 °F 15% 29.85 in 10.0 mi Calm Calm - N/A   Scattered Clouds
2:55 PM 87.1 °F 35.1 °F 16% 29.83 in 10.0 mi South 4.6 mph - N/A   Scattered Clouds
3:55 PM 87.1 °F 30.9 °F 13% 29.82 in 10.0 mi South 3.5 mph - N/A   Scattered Clouds
4:55 PM 86.0 °F 30.0 °F 13% 29.82 in 10.0 mi SSW 5.8 mph - N/A   Scattered Clouds
5:55 PM 82.9 °F 36.0 °F 19% 29.82 in 10.0 mi Calm Calm - N/A   Mostly Cloudy
6:55 PM 79.0 °F 39.9 °F 25% 29.83 in 10.0 mi Calm Calm - N/A   Mostly Cloudy
7:55 PM 75.0 °F 45.0 °F 34% 29.83 in 10.0 mi South 5.8 mph - N/A   Mostly Cloudy
8:55 PM 73.9 °F 46.9 °F 38% 29.84 in 10.0 mi Calm Calm - N/A   Mostly Cloudy
9:55 PM 72.0 °F 52.0 °F 49% 29.85 in 10.0 mi SSE 8.1 mph - N/A   Mostly Cloudy
10:55 PM 70.0 °F 52.0 °F 53% 29.84 in 10.0 mi Calm Calm - N/A   Mostly Cloudy
11:55 PM 66.9 °F 54.0 °F 63% 29.85 in 10.0 mi WNW 3.5 mph - N/A   Mostly Cloudy